Cadillac, MI

5:22 PM EDT on August 24, 2019 (GMT -0400)
Wexford County

Weather History for KCAD - June, 2019

Change the Weather History Date:

Tuesday, June 11, 2019

  Actual Average Record
Temperature  
Mean Temperature 58 °F -  
Max Temperature 77 °F 73 °F 90 °F (1949)
Min Temperature 40 °F 48 °F 26 °F (1972)
Degree Days  
Heating Degree Days 6    
Growing Degree Days 8 (Base 50)    
Moisture  
Dew Point 44 °F    
Average Humidity 61    
Maximum Humidity 95    
Minimum Humidity 24    
Precipitation  
Precipitation 0.00 in - - ()
Sea Level Pressure  
Sea Level Pressure 30.11 in    
Wind  
Wind Speed 3 mph (WSW)    
Max Wind Speed 14 mph    
Max Gust Speed 18 mph    
Visibility 10 miles    
Events      
Averages and records for this station are not official NWS values.
T = Trace of Precipitation, MM = Missing Value Source: NWS Daily Summary

Daily Weather History Graph

Daily Weather History Graph

Search for Another Location

Airport or City:

Astronomy

Jun. 11, 2019 Rise Set
Actual Time 5:57 AM EDT 9:25 PM EDT
Civil Twilight 5:21 AM EDT 10:01 PM EDT
Nautical Twilight 4:33 AM EDT 10:49 PM EDT
Astronomical Twilight 3:32 AM EDT 11:50 PM EDT
Moon 3:08 PM EDT (6/11) 2:57 AM EDT (6/11)
Length of Visible Light 16h 40m
Length of Day
15h 27m
Waxing Gibbous, 66% of the Moon is Illuminated
Jun 11
Waxing Gibbous
Jun 17
Full
Jun 25
Last Quarter
Jul 2
New
Jul 9
First Quarter

Hourly Weather History & Observations

Time (EDT) Temp. Dew Point Humidity Pressure Visibility Wind Dir Wind Speed Gust Speed Precip Events Conditions
12:19 AM 44.6 °F 43.2 °F 95% 30.10 in 10.0 mi Calm Calm - N/A   Clear
12:37 AM 44.2 °F 42.8 °F 95% 30.09 in 10.0 mi Calm Calm - N/A   Clear
12:55 AM 44.8 °F 43.3 °F 95% 30.09 in 10.0 mi Calm Calm - N/A   Clear
1:15 AM 44.1 °F 42.6 °F 95% 30.08 in 10.0 mi Calm Calm - N/A   Scattered Clouds
1:16 AM 44.2 °F 42.8 °F 95% 30.08 in 10.0 mi Calm Calm - N/A   Scattered Clouds
1:35 AM 46.4 °F 45.0 °F 95% 30.08 in 10.0 mi Calm Calm - N/A   Scattered Clouds
1:40 AM 45.5 °F 43.9 °F 94% 30.08 in 10.0 mi Calm Calm - N/A   Scattered Clouds
1:57 AM 44.4 °F 43.0 °F 95% 30.08 in 10.0 mi Calm Calm - N/A   Clear
2:16 AM 43.7 °F 42.1 °F 94% 30.08 in 10.0 mi Calm Calm - N/A   Clear
2:35 AM 43.5 °F 41.9 °F 94% 30.09 in 10.0 mi Calm Calm - N/A   Clear
2:36 AM 43.5 °F 41.9 °F 94% 30.09 in 10.0 mi Calm Calm - N/A   Clear
2:55 AM 42.8 °F 41.4 °F 95% 30.09 in 10.0 mi Calm Calm - N/A   Clear
2:56 AM 42.8 °F 41.2 °F 94% 30.09 in 10.0 mi Calm Calm - N/A   Clear
3:18 AM 42.1 °F 40.6 °F 95% 30.09 in 10.0 mi Calm Calm - N/A   Clear
3:37 AM 42.3 °F 40.8 °F 95% 30.09 in 10.0 mi Calm Calm - N/A   Clear
3:55 AM 41.2 °F 39.7 °F 95% 30.09 in 10.0 mi Calm Calm - N/A   Clear
4:15 AM 41.2 °F 39.6 °F 94% 30.09 in 10.0 mi Calm Calm - N/A   Clear
4:16 AM 41.0 °F 39.6 °F 95% 30.09 in 10.0 mi Calm Calm - N/A   Clear
4:35 AM 41.2 °F 39.7 °F 95% 30.09 in 7.0 mi Calm Calm - N/A   Clear
4:40 AM 41.4 °F 39.9 °F 95% 30.09 in 7.0 mi Calm Calm - N/A   Clear
4:58 AM 40.8 °F 39.4 °F 95% 30.10 in 10.0 mi Calm Calm - N/A   Clear
5:16 AM 40.5 °F 39.0 °F 95% 30.10 in 1.2 mi Calm Calm - N/A   Scattered Clouds
5:35 AM 41.5 °F 40.1 °F 95% 30.11 in 10.0 mi Calm Calm - N/A   Clear
5:55 AM 40.6 °F 39.2 °F 95% 30.12 in 10.0 mi Calm Calm - N/A   Clear
5:56 AM 40.6 °F 39.2 °F 95% 30.12 in 10.0 mi Calm Calm - N/A   Clear
6:19 AM 40.6 °F 39.2 °F 95% 30.13 in 10.0 mi Calm Calm - N/A   Clear
6:37 AM 42.1 °F 40.6 °F 95% 30.13 in 10.0 mi Calm Calm - N/A   Clear
6:55 AM 43.7 °F 42.3 °F 95% 30.14 in 10.0 mi Calm Calm - N/A   Clear
7:15 AM 46.9 °F 45.5 °F 95% 30.15 in 10.0 mi Calm Calm - N/A   Clear
7:35 AM 50.7 °F 49.1 °F 94% 30.16 in 10.0 mi WSW 3.5 mph - N/A   Clear
7:40 AM 51.4 °F 49.8 °F 94% 30.16 in 10.0 mi Calm Calm - N/A   Clear
7:58 AM 53.1 °F 50.0 °F 89% 30.16 in 10.0 mi WSW 5.8 mph - N/A   Clear
8:16 AM 55.2 °F 50.2 °F 83% 30.17 in 10.0 mi WSW 5.8 mph - N/A   Clear
8:35 AM 56.8 °F 50.2 °F 78% 30.16 in 10.0 mi West 4.6 mph - N/A   Scattered Clouds
8:55 AM 59.0 °F 50.2 °F 73% 30.17 in 10.0 mi WSW 4.6 mph - N/A   Clear
8:56 AM 59.2 °F 50.2 °F 72% 30.17 in 10.0 mi WSW 5.8 mph - N/A   Clear
9:19 AM 60.3 °F 50.4 °F 70% 30.17 in 10.0 mi West 6.9 mph - N/A   Clear
9:37 AM 61.7 °F 50.7 °F 67% 30.17 in 10.0 mi SW 9.2 mph - N/A   Clear
9:55 AM 62.2 °F 50.0 °F 64% 30.17 in 10.0 mi SW 6.9 mph - N/A   Clear
9:56 AM 62.4 °F 50.0 °F 64% 30.17 in 10.0 mi SW 6.9 mph - N/A   Clear
10:15 AM 63.5 °F 49.1 °F 59% 30.17 in 10.0 mi SW 6.9 mph - N/A   Clear
10:16 AM 63.7 °F 49.1 °F 59% 30.17 in 10.0 mi SW 8.1 mph - N/A   Clear
10:35 AM 65.1 °F 48.4 °F 55% 30.17 in 10.0 mi WSW 4.6 mph - N/A   Clear
10:40 AM 65.5 °F 48.0 °F 53% 30.17 in 10.0 mi SW 5.8 mph - N/A   Clear
10:58 AM 67.1 °F 45.5 °F 46% 30.16 in 10.0 mi WSW 4.6 mph - N/A   Clear
11:16 AM 67.6 °F 46.8 °F 47% 30.16 in 10.0 mi WSW 3.5 mph - N/A   Clear
11:35 AM 68.7 °F 46.2 °F 44% 30.16 in 10.0 mi SW 5.8 mph - N/A   Clear
11:36 AM 68.5 °F 46.2 °F 45% 30.16 in 10.0 mi SW 8.1 mph - N/A   Clear
11:55 AM 70.5 °F 45.0 °F 40% 30.15 in 10.0 mi West 8.1 mph - N/A   Clear
12:19 PM 71.6 °F 44.2 °F 37% 30.15 in 10.0 mi WSW 9.2 mph - N/A   Clear
12:37 PM 71.6 °F 43.9 °F 37% 30.14 in 10.0 mi SW 5.8 mph - N/A   Clear
12:55 PM 72.0 °F 43.2 °F 35% 30.14 in 10.0 mi WNW 9.2 mph - N/A   Clear
12:56 PM 72.1 °F 43.3 °F 35% 30.14 in 10.0 mi WNW 9.2 mph - N/A   Clear
1:15 PM 72.9 °F 44.4 °F 36% 30.14 in 10.0 mi West 6.9 mph - N/A   Scattered Clouds
1:35 PM 73.6 °F 43.3 °F 34% 30.13 in 10.0 mi WSW 4.6 mph - N/A   Scattered Clouds
1:58 PM 73.9 °F 43.0 °F 33% 30.13 in 10.0 mi WNW 5.8 mph - N/A   Scattered Clouds
2:16 PM 74.5 °F 42.4 °F 32% 30.13 in 10.0 mi West 4.6 mph 17.3 mph N/A   Clear
2:35 PM 73.9 °F 43.7 °F 34% 30.12 in 10.0 mi WSW 4.6 mph 18.4 mph N/A   Scattered Clouds
2:55 PM 75.4 °F 43.7 °F 32% 30.11 in 10.0 mi WSW 12.7 mph 18.4 mph N/A   Scattered Clouds
3:19 PM 75.7 °F 41.7 °F 30% 30.11 in 10.0 mi WSW 9.2 mph 18.4 mph N/A   Mostly Cloudy
3:37 PM 75.6 °F 41.5 °F 29% 30.11 in 10.0 mi West 5.8 mph - N/A   Scattered Clouds
3:55 PM 75.0 °F 40.8 °F 29% 30.10 in 10.0 mi West 6.9 mph 17.3 mph N/A   Scattered Clouds
3:56 PM 75.2 °F 40.8 °F 29% 30.10 in 10.0 mi WSW 8.1 mph - N/A   Scattered Clouds
4:15 PM 77.0 °F 39.7 °F 26% 30.10 in 10.0 mi West 9.2 mph 17.3 mph N/A   Scattered Clouds
4:35 PM 77.5 °F 39.7 °F 26% 30.10 in 10.0 mi NW 9.2 mph 17.3 mph N/A   Scattered Clouds
4:58 PM 74.1 °F 36.9 °F 26% 30.09 in 10.0 mi West 13.8 mph 18.4 mph N/A   Scattered Clouds
5:16 PM 74.7 °F 37.8 °F 26% 30.09 in 10.0 mi West 11.5 mph - N/A   Scattered Clouds
5:35 PM 75.0 °F 35.4 °F 24% 30.08 in 10.0 mi West 6.9 mph 17.3 mph N/A   Clear
5:36 PM 74.8 °F 35.8 °F 24% 30.08 in 10.0 mi WNW 9.2 mph 17.3 mph N/A   Clear
5:55 PM 75.2 °F 37.9 °F 26% 30.08 in 10.0 mi SW 10.4 mph - N/A   Scattered Clouds
5:56 PM 74.8 °F 38.1 °F 26% 30.08 in 10.0 mi SW 11.5 mph - N/A   Scattered Clouds
6:19 PM 74.1 °F 38.3 °F 27% 30.08 in 10.0 mi WSW 8.1 mph - N/A   Scattered Clouds
6:37 PM 73.6 °F 37.8 °F 27% 30.07 in 10.0 mi WSW 6.9 mph - N/A   Scattered Clouds
6:55 PM 73.0 °F 39.2 °F 29% 30.07 in 10.0 mi SW 5.8 mph - N/A   Clear
7:15 PM 72.5 °F 42.1 °F 33% 30.07 in 10.0 mi WSW 6.9 mph - N/A   Clear
7:35 PM 71.6 °F 42.3 °F 35% 30.07 in 10.0 mi WSW 4.6 mph - N/A   Clear
7:40 PM 71.6 °F 42.4 °F 35% 30.07 in 10.0 mi WSW 4.6 mph - N/A   Clear
7:58 PM 70.7 °F 44.8 °F 39% 30.07 in 10.0 mi WSW 3.5 mph - N/A   Clear
8:16 PM 69.4 °F 47.7 °F 46% 30.06 in 10.0 mi SW 3.5 mph - N/A   Clear
8:35 PM 68.7 °F 48.4 °F 48% 30.06 in 10.0 mi SW 3.5 mph - N/A   Clear
8:55 PM 67.5 °F 49.1 °F 52% 30.06 in 10.0 mi SW 3.5 mph - N/A   Clear
8:56 PM 67.5 °F 49.1 °F 52% 30.06 in 10.0 mi SW 3.5 mph - N/A   Clear
9:19 PM 65.7 °F 48.2 °F 53% 30.06 in 10.0 mi SW 4.6 mph - N/A   Clear
9:37 PM 64.2 °F 46.8 °F 53% 30.06 in 10.0 mi SW 5.8 mph - N/A   Clear
9:55 PM 66.2 °F 46.9 °F 50% 30.07 in 10.0 mi WSW 9.2 mph - N/A   Clear
10:15 PM 65.5 °F 45.7 °F 49% 30.07 in 10.0 mi WSW 4.6 mph - N/A   Clear
10:16 PM 65.5 °F 45.7 °F 49% 30.07 in 10.0 mi WSW 4.6 mph - N/A   Clear
10:35 PM 64.6 °F 45.9 °F 51% 30.08 in 10.0 mi WSW 4.6 mph - N/A   Clear
10:40 PM 64.4 °F 46.4 °F 52% 30.07 in 10.0 mi WSW 4.6 mph - N/A   Clear
10:58 PM 63.5 °F 48.2 °F 57% 30.07 in 10.0 mi SW 3.5 mph - N/A   Mostly Cloudy
11:16 PM 63.3 °F 47.3 °F 56% 30.07 in 10.0 mi SSW 4.6 mph - N/A   Overcast
11:35 PM 63.5 °F 47.3 °F 56% 30.06 in 10.0 mi SSE 3.5 mph - N/A   Overcast
11:55 PM 62.6 °F 47.7 °F 58% 30.05 in 10.0 mi South 4.6 mph - N/A   Mostly Cloudy